Location: *
(51.0333°S, 178.4667°E)
Time: 02:31:31
(UTC+00:00)

Envisat - Pass Details

Date: 27 January 2020
Orbit: 764 x 766 km, 98.1° (Epoch: 25 February)

Event Time Altitude Azimuth Distance (km) Brightness Sun altitude
Rises 15:29:23 0° 85° (E) 3,253 6.9 -8.9°
Reaches altitude 10° 15:34:22 10° 128° (SE) 2,339 7.2 -8.4°
Maximum altitude 15:34:48 10° 133° (SE) 2,333 7.3 -8.3°
Drops below altitude 10° 15:35:13 10° 138° (SE) 2,341 7.2 -8.3°
Sets 15:40:14 0° 180° (S) 3,279 7.0 -7.7°
